N2QDK-2 Weather Reports


Display with metric or nautical units.
time (UTC)temp
F
wind
direction
speed
MPH
gust
MPH
rain 1hr
in
rain 24hr
in
rain mn
in
humidity
%
barometer
mb
20171022002946 62 182 0.0 2.0 0.00 0.00 0.00 73 1024.0
20171021235946 64 182 0.0 0.0 0.00 0.00 0.00 69 1024.3
20171021233015 64 182 0.0 2.0 0.00 0.00 0.00 68 1024.2
20171021230013 64 182 0.0 0.0 0.00 0.00 0.00 69 1024.3
20171021223012 65 182 0.0 0.0 0.00 0.00 0.00 65 1023.9
20171021220012 67 182 0.0 0.0 0.00 0.00 0.00 62 1024.0
20171021213011 69 182 0.0 0.0 0.00 0.00 0.00 60 1024.0
20171021210009 71 182 0.0 0.0 0.00 0.00 0.00 54 1024.0
20171021203009 72 182 0.0 0.0 0.00 0.00 0.00 48 1024.2
20171021195953 73 182 0.0 2.0 0.00 0.00 0.00 45 1024.2
20171021193007 73 182 0.0 3.0 0.00 0.00 0.00 38 1024.1
20171021190006 73 163 0.0 3.0 0.00 0.00 0.00 43 1024.5
20171021182936 72 98 0.0 2.0 0.00 0.00 0.00 42 1024.4
20171021180005 72 216 0.0 3.0 0.00 0.00 0.00 43 1024.7
20171021173004 71 222 0.0 3.0 0.00 0.00 0.00 44 1025.0
20171021170003 70 106 2.0 3.0 0.00 0.00 0.00 43 1025.1
20171021162932 69 198 0.0 8.0 0.00 0.00 0.00 47 1025.3
20171021155947 67 57 0.0 6.0 0.00 0.00 0.00 49 1025.4
20171021153000 66 117 0.0 5.0 0.00 0.00 0.00 49 1025.4
20171021145959 64 155 0.0 5.0 0.00 0.00 0.00 51 1025.3
20171021142958 60 20 0.0 2.0 0.00 0.00 0.00 59 1025.6
20171021135957 59 226 0.0 3.0 0.00 0.00 0.00 62 1025.6
20171021132957 56 173 0.0 2.0 0.00 0.00 0.00 65 1025.4
20171021125956 53 130 0.0 2.0 0.00 0.00 0.00 67 1025.4
20171021122955 51 81 0.0 0.0 0.00 0.00 0.00 70 1025.0
20171021115954 50 81 0.0 0.0 0.00 0.00 0.00 72 1024.8
20171021112954 50 81 0.0 0.0 0.00 0.00 0.00 72 1024.6
20171021105952 50 81 0.0 0.0 0.00 0.00 0.00 71 1024.2
20171021102951 50 81 0.0 0.0 0.00 0.00 0.00 71 1024.2
20171021100020 50 81 0.0 0.0 0.00 0.00 0.00 72 1024.0
20171021092949 50 81 0.0 0.0 0.00 0.00 0.00 71 1023.9
20171021090018 51 81 0.0 0.0 0.00 0.00 0.00 70 1023.8
20171021082948 52 81 0.0 0.0 0.00 0.00 0.00 68 1023.6
20171021080016 52 81 0.0 0.0 0.00 0.00 0.00 67 1023.4
20171021073015 51 81 0.0 0.0 0.00 0.00 0.00 70 1023.3
20171021070014 51 81 0.0 2.0 0.00 0.00 0.00 71 1023.3
20171021062944 52 80 0.0 0.0 0.00 0.00 0.00 69 1023.3
20171021055943 52 80 0.0 0.0 0.00 0.00 0.00 69 1023.1
20171021053012 52 80 0.0 0.0 0.00 0.00 0.00 68 1023.0
20171021050011 53 80 0.0 0.0 0.00 0.00 0.00 67 1022.9
20171021042941 53 80 0.0 2.0 0.00 0.00 0.00 67 1022.6
20171021040009 53 80 0.0 0.0 0.00 0.00 0.00 67 1022.3
20171021033009 53 80 0.0 0.0 0.00 0.00 0.00 67 1022.1
20171021030008 53 80 0.0 0.0 0.00 0.00 0.00 66 1022.1
20171021023007 54 49 0.0 0.0 0.00 0.00 0.00 64 1021.8
20171021020006 54 49 0.0 0.0 0.00 0.00 0.00 65 1021.6
20171021013005 53 49 0.0 0.0 0.00 0.00 0.00 70 1021.3
20171021010005 53 49 0.0 0.0 0.00 0.00 0.00 72 1021.3